Location: Betzi
(47.2343°N, 9.5260°E)
Time: 23:24:00
(UTC+00:00)

Cosmos 1943 - Pass Details

Date: 27 May 2022
Orbit: 834 x 849 km, 71.0° (Epoch: 26 June)

Event Time Altitude Azimuth Distance (km) Brightness Sun altitude
Exits shadow 02:36:08 - 210° (SSW) 2,544 5.1 -8.4°
Reaches altitude 10° 02:36:20 10° 210° (SSW) 2,468 5.0 -8.4°
Maximum altitude 02:42:01 81° 297° (WNW) 865 3.3 -7.7°
Drops below altitude 10° 02:47:44 10° 26° (NNE) 2,479 6.9 -7.0°
Sets 02:50:12 0° 27° (NNE) 3,417 7.9 -6.7°
